When you browse on this site, cookies collect data to enhance your experience and personalize the content and advertising you see.
Visit our Privacy Policy to learn more. By continuing to use the site, you agree to this use of cookies and data.

Hourly Weather Fort Smith

Today, 16 July, Thursday

Time Temperature Precipitation Wind Pressure Humidity
00:00 +27°C° 0 mm 1 mps 748 mmHg 79%
01:00 +25°C° 0 mm 0 mps 748 mmHg 82%
02:00 +24°C° 0 mm 0 mps 748 mmHg 84%
03:00 +24°C° 0 mm 0 mps 748 mmHg 87%
04:00 +24°C° 0 mm 0 mps 748 mmHg 88%
05:00 +24°C° 0 mm 0 mps 749 mmHg 88%
06:00 +24°C° 0 mm 0 mps 749 mmHg 89%
07:00 +26°C° 0.2 mm 0 mps 749 mmHg 84%
08:00 +28°C° 0.2 mm 0 mps 749 mmHg 79%
09:00 +30°C° 0.2 mm 0 mps 750 mmHg 74%
10:00 +34°C° 0 mm 1 mps 749 mmHg 66%
11:00 +35°C° 0 mm 1 mps 749 mmHg 59%
12:00 +37°C° 0 mm 1 mps 749 mmHg 52%
13:00 +37°C° 0 mm 1 mps 748 mmHg 49%
14:00 +39°C° 0 mm 1 mps 748 mmHg 46%
15:00 +40°C° 0 mm 1 mps 748 mmHg 44%
16:00 +39°C° 0 mm 1 mps 748 mmHg 49%
17:00 +38°C° 0 mm 2 mps 747 mmHg 54%
18:00 +37°C° 0 mm 2 mps 747 mmHg 59%
19:00 +35°C° 0.4 mm 2 mps 747 mmHg 65%
20:00 +32°C° 0.4 mm 2 mps 748 mmHg 71%
21:00 +30°C° 0.4 mm 2 mps 748 mmHg 77%
22:00 +29°C° 0.2 mm 2 mps 748 mmHg 80%
23:00 +28°C° 0.2 mm 1 mps 748 mmHg 83%

Tomorrow, 17 July, Friday

Time Temperature Precipitation Wind Pressure Humidity
00:00 +27°C° 0.2 mm 1 mps 749 mmHg 86%
01:00 +27°C° 0 mm 1 mps 749 mmHg 88%
02:00 +27°C° 0 mm 1 mps 748 mmHg 89%
03:00 +26°C° 0 mm 1 mps 748 mmHg 90%
04:00 +26°C° 0 mm 1 mps 749 mmHg 91%
05:00 +26°C° 0 mm 1 mps 749 mmHg 92%
06:00 +26°C° 0 mm 2 mps 750 mmHg 92%
07:00 +27°C° 0 mm 2 mps 750 mmHg 89%
08:00 +28°C° 0 mm 3 mps 750 mmHg 85%
09:00 +29°C° 0 mm 3 mps 750 mmHg 82%
10:00 +31°C° 0 mm 3 mps 749 mmHg 73%
11:00 +34°C° 0 mm 3 mps 749 mmHg 64%
12:00 +35°C° 0 mm 3 mps 749 mmHg 55%
13:00 +36°C° 0 mm 3 mps 749 mmHg 50%
14:00 +37°C° 0 mm 3 mps 748 mmHg 46%
15:00 +40°C° 0 mm 4 mps 748 mmHg 42%
16:00 +38°C° 0 mm 3 mps 748 mmHg 47%
17:00 +37°C° 0 mm 3 mps 747 mmHg 52%
18:00 +36°C° 0 mm 2 mps 747 mmHg 57%
19:00 +34°C° 0 mm 2 mps 747 mmHg 61%
20:00 +31°C° 0 mm 2 mps 748 mmHg 66%
21:00 +30°C° 0 mm 2 mps 748 mmHg 70%
22:00 +29°C° 0 mm 2 mps 748 mmHg 72%
23:00 +28°C° 0 mm 1 mps 748 mmHg 75%

Day after tomorrow, 18 July, Saturday

Time Temperature Precipitation Wind Pressure Humidity
00:00 +28°C° 0 mm 1 mps 748 mmHg 77%
01:00 +27°C° 0 mm 1 mps 748 mmHg 79%
02:00 +27°C° 0 mm 2 mps 748 mmHg 81%
03:00 +27°C° 0 mm 2 mps 748 mmHg 83%
04:00 +27°C° 0 mm 1 mps 748 mmHg 83%
05:00 +26°C° 0 mm 1 mps 748 mmHg 84%
06:00 +26°C° 0 mm 1 mps 749 mmHg 85%
07:00 +28°C° 0 mm 1 mps 749 mmHg 79%
08:00 +30°C° 0 mm 2 mps 749 mmHg 73%
09:00 +32°C° 0 mm 2 mps 749 mmHg 67%
10:00 +34°C° 0 mm 3 mps 749 mmHg 61%
11:00 +36°C° 0 mm 3 mps 749 mmHg 55%
12:00 +37°C° 0 mm 3 mps 749 mmHg 49%
13:00 +38°C° 0 mm 3 mps 749 mmHg 46%
14:00 +38°C° 0 mm 3 mps 748 mmHg 43%
15:00 +39°C° 0 mm 3 mps 748 mmHg 40%
16:00 +38°C° 0 mm 3 mps 748 mmHg 44%
17:00 +37°C° 0 mm 2 mps 747 mmHg 48%
18:00 +36°C° 0 mm 2 mps 747 mmHg 52%
19:00 +34°C° 0 mm 2 mps 747 mmHg 56%
20:00 +31°C° 0 mm 2 mps 748 mmHg 60%
21:00 +29°C° 0 mm 2 mps 748 mmHg 65%
22:00 +28°C° 0 mm 2 mps 748 mmHg 69%
23:00 +27°C° 0 mm 1 mps 748 mmHg 73%

19 July, Sunday

Time Temperature Precipitation Wind Pressure Humidity
00:00 +26°C° 0 mm 1 mps 748 mmHg 77%
01:00 +26°C° 0 mm 1 mps 747 mmHg 79%
02:00 +25°C° 0 mm 1 mps 747 mmHg 80%
03:00 +25°C° 0 mm 1 mps 747 mmHg 82%
04:00 +25°C° 0 mm 1 mps 748 mmHg 83%
05:00 +25°C° 0 mm 1 mps 748 mmHg 84%
06:00 +23°C° 0 mm 0 mps 748 mmHg 85%
07:00 +27°C° 0 mm 1 mps 749 mmHg 77%
08:00 +29°C° 0 mm 1 mps 749 mmHg 69%
09:00 +32°C° 0 mm 1 mps 749 mmHg 61%
10:00 +34°C° 0 mm 2 mps 749 mmHg 55%
11:00 +36°C° 0 mm 2 mps 749 mmHg 50%
12:00 +37°C° 0 mm 2 mps 749 mmHg 44%
13:00 +37°C° 0 mm 2 mps 748 mmHg 44%
14:00 +37°C° 0 mm 2 mps 748 mmHg 43%
15:00 +38°C° 0 mm 2 mps 747 mmHg 43%
16:00 +37°C° 0 mm 2 mps 747 mmHg 46%
17:00 +36°C° 0 mm 2 mps 747 mmHg 50%
18:00 +36°C° 0 mm 2 mps 747 mmHg 54%
19:00 +34°C° 0 mm 2 mps 747 mmHg 57%
20:00 +31°C° 0 mm 2 mps 747 mmHg 60%
21:00 +29°C° 0 mm 2 mps 747 mmHg 63%
22:00 +28°C° 0 mm 1 mps 747 mmHg 66%
23:00 +27°C° 0 mm 1 mps 747 mmHg 69%

20 July, Monday

Time Temperature Precipitation Wind Pressure Humidity
00:00 +27°C° 0 mm 1 mps 747 mmHg 73%
01:00 +26°C° 0 mm 1 mps 747 mmHg 74%
02:00 +26°C° 0 mm 1 mps 748 mmHg 75%
03:00 +25°C° 0 mm 1 mps 748 mmHg 76%
04:00 +25°C° 0 mm 1 mps 748 mmHg 78%
05:00 +25°C° 0 mm 1 mps 748 mmHg 79%
06:00 +25°C° 0 mm 1 mps 749 mmHg 81%
07:00 +27°C° 0 mm 1 mps 749 mmHg 74%
08:00 +29°C° 0 mm 1 mps 749 mmHg 66%
09:00 +32°C° 0 mm 1 mps 749 mmHg 59%
10:00 +35°C° 0 mm 2 mps 748 mmHg 53%
11:00 +36°C° 0 mm 2 mps 748 mmHg 47%
12:00 +38°C° 0 mm 2 mps 748 mmHg 41%
13:00 +38°C° 0 mm 2 mps 747 mmHg 40%
14:00 +38°C° 0 mm 2 mps 747 mmHg 39%
15:00 +39°C° 0 mm 3 mps 746 mmHg 38%
16:00 +38°C° 0 mm 2 mps 746 mmHg 43%
17:00 +37°C° 0 mm 2 mps 746 mmHg 47%
18:00 +36°C° 0 mm 2 mps 746 mmHg 52%
19:00 +34°C° 0 mm 2 mps 746 mmHg 55%
20:00 +31°C° 0 mm 2 mps 746 mmHg 58%
21:00 +30°C° 0 mm 1 mps 746 mmHg 61%
22:00 +29°C° 0 mm 1 mps 746 mmHg 64%
23:00 +28°C° 0 mm 1 mps 747 mmHg 67%

21 July, Tuesday

Time Temperature Precipitation Wind Pressure Humidity
00:00 +27°C° 0 mm 1 mps 747 mmHg 70%
01:00 +26°C° 0 mm 1 mps 747 mmHg 72%
02:00 +26°C° 0 mm 1 mps 747 mmHg 74%
03:00 +26°C° 0 mm 1 mps 747 mmHg 76%
04:00 +25°C° 0 mm 1 mps 747 mmHg 77%
05:00 +25°C° 0 mm 1 mps 747 mmHg 78%
06:00 +25°C° 0 mm 1 mps 748 mmHg 80%
07:00 +27°C° 0 mm 1 mps 748 mmHg 72%
08:00 +30°C° 0 mm 1 mps 748 mmHg 65%
09:00 +33°C° 0 mm 1 mps 749 mmHg 57%
10:00 +34°C° 0 mm 1 mps 748 mmHg 52%
11:00 +36°C° 0 mm 1 mps 748 mmHg 47%
12:00 +37°C° 0 mm 1 mps 748 mmHg 41%
13:00 +39°C° 0 mm 1 mps 748 mmHg 39%
14:00 +39°C° 0 mm 1 mps 747 mmHg 37%
15:00 +40°C° 0 mm 1 mps 747 mmHg 35%
16:00 +39°C° 0 mm 1 mps 747 mmHg 40%
17:00 +37°C° 0 mm 1 mps 746 mmHg 44%
18:00 +36°C° 0 mm 1 mps 746 mmHg 49%
19:00 +34°C° 0 mm 1 mps 747 mmHg 53%
20:00 +32°C° 0 mm 1 mps 747 mmHg 58%
21:00 +30°C° 0 mm 1 mps 747 mmHg 62%
22:00 +29°C° 0 mm 1 mps 747 mmHg 67%
23:00 +28°C° 0 mm 1 mps 747 mmHg 71%
Show more